| time (UTC) | temp F | wind direction | speed knots | gust knots | rain 1hr in | rain 24hr in | rain mn in | humidity % | barometer mb |
| 20260505182827 | 77 | 272 | 4.3 | 13.0 | 0.00 | 0.06 | 0.06 | 38 | 1007.0 |
| 20260505182313 | 77 | 228 | 2.6 | 14.8 | 0.00 | 0.06 | 0.06 | 39 | 1007.2 |
| 20260505181825 | 77 | 231 | 0.9 | 14.8 | 0.00 | 0.06 | 0.06 | 38 | 1007.3 |
| 20260505181326 | 78 | 242 | 3.5 | 14.8 | 0.00 | 0.06 | 0.06 | 37 | 1007.5 |
| 20260505180831 | 78 | 291 | 3.5 | 16.5 | 0.00 | 0.06 | 0.06 | 38 | 1007.1 |
| 20260505180313 | 78 | 148 | 4.3 | 16.5 | 0.00 | 0.06 | 0.06 | 39 | 1007.4 |
| 20260505175838 | 78 | 282 | 1.7 | 13.9 | 0.00 | 0.06 | 0.06 | 38 | 1007.5 |
| 20260505175322 | 78 | 261 | 3.5 | 14.8 | 0.00 | 0.06 | 0.06 | 41 | 1007.5 |
| 20260505174827 | 78 | 201 | 3.5 | 14.8 | 0.00 | 0.06 | 0.06 | 38 | 1007.7 |
| 20260505174330 | 78 | 228 | 0.9 | 13.9 | 0.00 | 0.06 | 0.06 | 40 | 1007.8 |
| 20260505173812 | 78 | 214 | 2.6 | 13.9 | 0.00 | 0.06 | 0.06 | 40 | 1007.8 |
| 20260505173318 | 78 | 215 | 0.9 | 10.4 | 0.00 | 0.06 | 0.06 | 41 | 1007.8 |
| 20260505172821 | 77 | 209 | 2.6 | 13.0 | 0.00 | 0.06 | 0.06 | 43 | 1007.8 |
| 20260505172324 | 77 | 210 | 4.3 | 13.0 | 0.00 | 0.06 | 0.06 | 43 | 1007.8 |
| 20260505171829 | 76 | 224 | 0.9 | 13.0 | 0.00 | 0.06 | 0.06 | 43 | 1007.6 |
| 20260505171331 | 76 | 250 | 3.5 | 13.0 | 0.00 | 0.06 | 0.06 | 45 | 1007.9 |
| 20260505170821 | 77 | 221 | 3.5 | 12.2 | 0.00 | 0.06 | 0.06 | 42 | 1007.9 |
| 20260505170326 | 77 | 279 | 0.0 | 12.2 | 0.00 | 0.06 | 0.06 | 42 | 1007.8 |
| 20260505165851 | 76 | 193 | 2.6 | 12.2 | 0.00 | 0.06 | 0.06 | 46 | 1008.0 |
| 20260505165331 | 76 | 264 | 1.7 | 16.5 | 0.00 | 0.06 | 0.06 | 44 | 1008.0 |
| 20260505164816 | 75 | 283 | 1.7 | 16.5 | 0.00 | 0.06 | 0.06 | 43 | 1008.1 |
| 20260505164321 | 75 | 218 | 2.6 | 13.0 | 0.00 | 0.06 | 0.06 | 44 | 1008.1 |
| 20260505163826 | 75 | 222 | 1.7 | 12.2 | 0.00 | 0.06 | 0.06 | 45 | 1008.1 |
| 20260505163328 | 75 | 245 | 1.7 | 12.2 | 0.00 | 0.06 | 0.06 | 46 | 1008.2 |
| 20260505162831 | 75 | 290 | 0.9 | 9.6 | 0.00 | 0.06 | 0.06 | 45 | 1008.2 |
| 20260505162314 | 75 | 317 | 0.9 | 9.6 | 0.00 | 0.06 | 0.06 | 44 | 1008.3 |
| 20260505161840 | 75 | 224 | 0.9 | 9.6 | 0.00 | 0.06 | 0.06 | 44 | 1008.4 |
| 20260505161323 | 76 | 222 | 0.9 | 8.7 | 0.00 | 0.06 | 0.06 | 45 | 1008.5 |
| 20260505160828 | 76 | 195 | 0.9 | 12.2 | 0.00 | 0.06 | 0.06 | 47 | 1008.3 |
| 20260505160335 | 75 | 306 | 0.9 | 12.2 | 0.00 | 0.06 | 0.06 | 46 | 1008.5 |
| 20260505153325 | 72 | 243 | 1.7 | 12.2 | 0.00 | 0.06 | 0.06 | 49 | 1009.1 |
| 20260505152828 | 72 | 233 | 1.7 | 13.0 | 0.00 | 0.06 | 0.06 | 49 | 1009.1 |
| 20260505152332 | 72 | 326 | 1.7 | 17.4 | 0.00 | 0.06 | 0.06 | 49 | 1009.1 |
| 20260505151817 | 72 | 229 | 6.1 | 17.4 | 0.00 | 0.06 | 0.06 | 49 | 1009.0 |
| 20260505151321 | 73 | 229 | 3.5 | 13.0 | 0.00 | 0.06 | 0.06 | 49 | 1009.0 |
| 20260505150825 | 72 | 136 | 0.0 | 9.6 | 0.00 | 0.06 | 0.06 | 50 | 1008.9 |
| 20260505150314 | 72 | 264 | 0.9 | 8.7 | 0.00 | 0.06 | 0.06 | 49 | 1008.8 |
| 20260505140324 | 71 | 269 | 3.5 | 13.0 | 0.00 | 0.06 | 0.06 | 54 | 1008.7 |
| 20260505124826 | 66 | 234 | 0.9 | 7.0 | 0.00 | 0.06 | 0.06 | 65 | 1009.0 |
| 20260505124330 | 66 | 239 | 3.5 | 6.1 | 0.00 | 0.06 | 0.06 | 65 | 1009.0 |
| 20260505123814 | 65 | 252 | 0.0 | 9.6 | 0.00 | 0.06 | 0.06 | 66 | 1009.0 |
| 20260505123322 | 65 | 235 | 0.0 | 9.6 | 0.00 | 0.06 | 0.06 | 67 | 1009.1 |
| 20260505122827 | 64 | 127 | 1.7 | 9.6 | 0.00 | 0.06 | 0.06 | 68 | 1009.1 |
| 20260505122330 | 63 | 229 | 3.5 | 9.6 | 0.00 | 0.06 | 0.06 | 68 | 1009.2 |
| 20260505121815 | 63 | 232 | 0.0 | 7.0 | 0.00 | 0.06 | 0.06 | 68 | 1009.2 |
| 20260505121317 | 63 | 244 | 1.7 | 7.0 | 0.00 | 0.06 | 0.06 | 69 | 1009.2 |
| 20260505120823 | 62 | 214 | 2.6 | 8.7 | 0.00 | 0.06 | 0.06 | 71 | 1009.1 |
| 20260505120329 | 61 | 239 | 3.5 | 8.7 | 0.00 | 0.06 | 0.06 | 71 | 1009.3 |
| 20260505115817 | 61 | 262 | 2.6 | 9.6 | 0.01 | 0.06 | 0.06 | 72 | 1009.3 |
| 20260505115323 | 61 | 324 | 2.6 | 8.7 | 0.04 | 0.06 | 0.06 | 73 | 1009.2 |
| 20260505114828 | 60 | 219 | 3.5 | 10.4 | 0.06 | 0.06 | 0.06 | 73 | 1009.3 |